Wind_Speed
8 8 9 9 9 10 10 11 11 8 7 12 18 21 22 22 22 22 20 18 11 11 14 18 19 24 23 26 31 31 28 27 27 25 27 27 28 28
8 8 8 8 9 10 11 12 13 13 10 15 16 19 21 20 21 18 17 13 12 12 16 15 19 21 24 28 32 28 26 27 25 26 27 28 28 28
7 7 7 9 9 10 11 12 13 14 14 13 15 18 17 19 18 16 15 12 13 13 15 16 17 19 23 29 30 26 26 25 24 27 26 27 29 29
6 6 7 7 8 11 12 13 13 14 14 15 18 17 20 20 19 17 15 12 15 15 18 15 14 17 21 28 26 26 25 25 21 24 26 27 27 28
5 5 5 6 8 11 13 13 13 14 14 16 18 19 18 18 18 18 18 15 19 17 22 18 12 16 21 24 26 26 24 25 21 23 25 26 27 28
4 3 5 5 8 12 13 13 14 15 16 18 20 19 18 19 19 20 21 21 21 20 24 16 12 14 20 23 26 24 23 24 22 21 22 25 25 26
2 3 4 6 8 11 14 14 14 15 16 19 19 18 19 21 22 22 22 23 20 21 25 16 12 16 19 22 25 25 23 23 24 23 23 23 25 25
0 2 4 6 8 12 15 16 16 16 18 18 18 18 17 17 18 19 20 23 22 19 23 16 9 15 18 22 24 25 26 25 24 24 24 24 24 23
2 2 2 5 8 12 15 15 16 18 19 18 16 15 15 14 16 17 17 19 16 12 21 18 7 12 16 18 22 23 24 26 25 23 22 23 24 24
4 2 3 5 7 11 14 14 15 17 16 15 14 12 10 11 11 13 14 18 12 6 20 18 14 9 14 18 17 21 23 25 25 24 23 23 23 23
6 3 3 5 8 11 13 13 14 14 14 14 13 10 6 6 8 10 14 20 18 10 20 16 16 8 15 17 19 18 21 22 23 23 23 24 23 22
8 5 4 5 8 11 12 13 13 14 14 13 13 11 10 3 5 10 12 17 14 10 17 16 16 20 11 20 13 18 18 20 22 23 24 25 25 24
9 6 6 7 9 10 11 11 13 14 15 15 12 11 9 4 2 7 9 14 13 11 14 13 13 16 14 20 11 16 13 20 19 21 24 24 25 26
9 7 7 8 9 10 11 13 14 16 15 16 13 10 9 6 3 6 8 11 11 10 12 10 11 12 14 20 22 15 12 12 18 22 24 24 23 25
11 10 10 10 10 9 11 12 13 15 16 15 13 10 9 6 4 5 6 9 7 10 12 7 8 7 12 17 19 22 17 9 14 17 22 23 24 25
14 12 12 11 11 10 10 11 12 13 15 15 12 9 7 3 2 6 5 9 8 10 13 8 7 6 7 13 17 18 18 13 11 12 17 18 18 20
16 15 14 12 11 10 10 10 10 12 13 13 12 9 6 2 1 5 6 7 8 10 12 9 4 7 9 10 16 17 17 17 9 9 11 17 15 16
20 17 15 14 12 11 10 9 10 11 13 12 12 7 5 2 1 3 5 5 6 8 12 10 12 6 7 9 14 15 16 20 13 8 10 15 14 14
21 18 17 15 12 12 10 9 10 11 12 12 11 7 4 1 0 3 3 4 4 7 9 10 10 11 13 15 13 14 13 15 15 10 10 14 13 13
23 20 18 15 14 13 11 10 10 11 12 12 12 7 4 1 2 4 3 2 3 5 8 8 9 7 9 12 14 13 13 12 12 13 12 7 11 12
24 21 19 17 15 14 12 11 10 11 12 12 11 8 5 4 3 4 3 2 2 4 5 7 6 7 7 9 10 12 11 13 12 11 11 9 7 9
25 23 20 18 16 15 13 12 11 11 11 11 11 8 6 6 4 4 4 3 3 4 5 6 3 5 7 9 10 10 12 12 13 10 9 9 11 11
26 24 21 20 18 17 15 13 13 12 12 11 10 9 7 7 6 7 5 5 4 4 5 4 3 4 6 9 11 10 10 12 14 12 5 6 7 8
Wind_Direction
98 88 77 69 51 40 32 24 24 15 14 346 344 345 344 344 346 349 348 355 6 348 357 6 354 354 357 359 358 359 3 5 5 8 5 5 4 3
94 81 76 63 44 35 27 17 11 8 9 348 347 343 340 345 350 353 353 0 5 360 4 2 352 359 357 2 359 2 10 10 14 11 11 10 13 11
100 89 70 57 41 32 24 13 9 8 4 0 348 347 347 353 360 9 2 17 10 13 6 356 6 360 1 2 0 9 16 15 16 11 22 23 20 18
99 81 60 50 35 28 20 15 11 5 2 4 356 356 354 4 10 15 22 23 18 25 16 10 10 357 6 360 7 14 18 12 20 14 22 21 24 21
98 84 54 46 26 23 18 12 6 3 1 0 0 355 359 7 10 22 29 25 23 22 20 11 9 4 360 5 14 15 20 18 28 11 16 19 22 24
109 86 57 34 20 18 11 7 3 358 357 356 356 357 5 11 14 10 18 22 21 22 22 20 16 4 4 16 15 17 22 19 21 17 10 12 16 17
118 59 52 25 12 7 5 4 359 355 355 353 351 2 7 11 12 9 10 9 12 16 14 15 12 10 16 22 18 19 19 18 17 14 13 14 14 15
138 17 23 10 2 357 360 358 356 352 351 351 351 1 9 9 9 8 6 7 1 9 8 18 15 18 21 23 19 21 22 21 19 18 17 18 16 15
273 334 341 352 358 351 351 351 347 347 351 349 355 1 6 7 1 2 5 3 3 6 6 22 36 26 24 21 18 20 21 19 16 16 16 17 14 11
258 282 318 339 350 348 348 346 345 347 346 349 354 -0 359 356 358 351 346 0 12 12 4 16 30 31 24 17 10 16 16 18 19 22 19 14 13 11
248 259 286 323 340 344 345 343 343 345 345 352 358 5 6 349 354 346 357 1 14 14 2 13 15 34 33 17 5 6 15 18 19 21 20 19 16 14
252 261 284 311 330 339 340 341 343 346 353 356 1 5 8 7 357 350 355 4 7 6 358 6 13 8 356 9 358 4 7 22 23 23 17 15 17 20
250 261 279 300 319 327 334 341 344 353 355 355 2 3 9 30 12 1 353 354 4 7 358 358 4 4 7 359 3 2 357 12 21 23 22 19 17 19
247 250 267 286 307 317 328 336 345 356 352 348 357 1 10 42 24 8 0 346 3 8 357 0 358 357 2 9 9 359 358 359 9 21 19 19 27 26
245 249 260 277 292 305 322 333 345 348 349 342 353 2 11 25 25 350 360 346 35 12 358 10 -0 4 356 9 13 6 355 354 358 8 18 15 20 26
237 244 255 266 280 292 311 324 332 340 344 340 346 356 8 62 17 352 29 14 31 18 7 22 18 6 350 17 11 10 6 352 338 351 15 15 20 27
238 243 250 257 264 275 293 309 322 336 340 332 338 348 11 76 3 350 359 33 30 13 9 27 28 6 -0 15 15 13 8 4 347 341 5 13 15 21
237 242 246 254 258 269 288 301 316 330 333 331 323 338 353 97 198 320 344 43 27 8 9 15 16 3 7 25 16 21 20 14 22 11 1 9 18 19
234 236 244 253 257 265 279 291 305 319 325 323 317 328 332 358 345 273 323 40 28 4 7 14 19 15 19 23 23 15 19 25 24 22 9 5 17 19
232 236 243 251 255 259 269 280 297 311 319 310 309 320 314 235 219 257 313 24 13 3 5 5 6 28 24 11 3 9 5 6 11 14 14 16 16 18
237 238 242 248 252 252 259 270 287 302 311 302 300 300 293 263 222 267 275 319 323 325 337 343 359 13 12 357 348 359 0 1 356 356 1 12 12 11
237 240 242 247 250 250 254 265 277 290 297 290 293 296 286 271 222 240 257 263 282 303 326 343 358 1 354 341 343 346 354 356 355 353 1 5 6 357
237 240 241 245 248 249 250 258 269 280 286 285 289 287 278 261 228 229 237 257 260 270 282 315 335 344 341 340 346 342 344 346 346 358 354 10 8 357
Height
1570 1570 1569 1569 1567 1567 1566 1566 1564 1563 1562 1560 1556 1552 1548 1544 1540 1536 1532 1528 1524 1521 1517 1513 1509 1504 1499 1494 1488 1482 1476 1471 1466 1461 1456 1450 1444 1438
1571 1571 1570 1569 1568 1567 1565 1564 1562 1561 1560 1558 1555 1551 1547 1543 1539 1535 1531 1527 1523 1520 1516 1512 1508 1504 1499 1493 1487 1481 1476 1471 1467 1461 1455 1449 1444 1439
1572 1572 1570 1569 1568 1567 1565 1563 1561 1559 1558 1556 1554 1550 1547 1543 1539 1534 1530 1526 1523 1519 1515 1511 1507 1503 1498 1493 1487 1481 1476 1472 1467 1462 1456 1451 1446 1440
1572 1571 1570 1570 1569 1567 1565 1563 1561 1559 1557 1555 1552 1549 1544 1541 1537 1534 1529 1526 1522 1519 1515 1511 1507 1503 1499 1494 1487 1482 1477 1473 1469 1464 1459 1453 1448 1442
1571 1571 1571 1570 1569 1567 1564 1562 1561 1559 1556 1554 1550 1547 1543 1540 1536 1533 1529 1526 1522 1518 1515 1510 1507 1503 1500 1494 1489 1484 1479 1474 1470 1466 1460 1455 1450 1444
1571 1571 1570 1570 1568 1566 1564 1562 1560 1557 1555 1552 1548 1545 1541 1538 1535 1531 1527 1524 1520 1517 1515 1510 1507 1504 1500 1495 1491 1486 1481 1476 1472 1468 1463 1457 1452 1447
1571 1571 1570 1569 1568 1566 1564 1562 1559 1556 1553 1550 1547 1543 1539 1536 1533 1531 1527 1523 1520 1517 1515 1511 1508 1505 1501 1496 1492 1487 1482 1478 1473 1469 1464 1459 1453 1448
1570 1570 1569 1569 1567 1565 1562 1560 1557 1554 1552 1548 1545 1541 1539 1537 1534 1531 1528 1524 1520 1519 1515 1512 1509 1505 1502 1498 1494 1489 1485 1480 1475 1470 1465 1461 1456 1451
1569 1569 1569 1568 1566 1564 1561 1559 1556 1552 1549 1547 1543 1541 1538 1536 1534 1531 1528 1526 1522 1519 1516 1512 1509 1506 1503 1500 1496 1492 1487 1483 1478 1473 1468 1463 1458 1453
1568 1568 1568 1566 1565 1563 1561 1557 1555 1551 1548 1545 1542 1540 1538 1535 1534 1531 1528 1526 1522 1519 1516 1512 1510 1508 1505 1501 1498 1494 1489 1485 1480 1476 1472 1467 1461 1456
1567 1567 1566 1565 1564 1562 1559 1557 1554 1550 1547 1544 1540 1537 1536 1534 1533 1531 1527 1524 1520 1519 1517 1513 1511 1508 1506 1502 1499 1495 1491 1487 1482 1478 1474 1470 1464 1459
1565 1565 1564 1564 1562 1560 1558 1556 1552 1549 1546 1542 1539 1536 1534 1533 1532 1530 1527 1524 1521 1519 1517 1515 1511 1509 1505 1503 1500 1496 1493 1489 1485 1481 1476 1471 1466 1461
1563 1563 1562 1562 1561 1559 1558 1555 1552 1548 1545 1541 1538 1535 1534 1532 1531 1529 1527 1525 1522 1520 1518 1515 1513 1510 1508 1504 1500 1497 1494 1490 1487 1483 1479 1474 1468 1462
1561 1561 1561 1560 1559 1558 1556 1554 1550 1547 1544 1541 1538 1536 1533 1531 1530 1528 1527 1525 1522 1520 1518 1515 1513 1511 1508 1504 1500 1498 1495 1492 1488 1484 1480 1477 1472 1465
1559 1559 1558 1558 1557 1555 1554 1551 1549 1546 1543 1540 1537 1534 1532 1531 1530 1528 1526 1524 1522 1520 1517 1515 1513 1511 1509 1506 1502 1497 1493 1492 1489 1486 1482 1478 1473 1468
1556 1556 1556 1555 1554 1554 1552 1550 1548 1545 1542 1539 1536 1533 1531 1530 1530 1528 1526 1523 1522 1521 1517 1515 1513 1511 1509 1507 1504 1500 1496 1492 1489 1486 1484 1481 1477 1472
1553 1553 1553 1552 1552 1551 1550 1548 1546 1543 1541 1538 1535 1532 1531 1530 1529 1527 1525 1524 1522 1521 1518 1514 1513 1511 1509 1507 1504 1501 1496 1492 1488 1487 1485 1482 1478 1474
1549 1549 1550 1550 1549 1549 1547 1545 1543 1541 1539 1536 1534 1531 1530 1529 1528 1527 1525 1523 1522 1521 1518 1515 1513 1511 1509 1507 1505 1502 1498 1493 1489 1488 1486 1484 1480 1476
1543 1545 1546 1546 1547 1545 1544 1543 1541 1539 1537 1534 1532 1530 1528 1528 1527 1527 1525 1523 1522 1521 1518 1515 1513 1511 1509 1507 1505 1503 1500 1496 1492 1489 1487 1484 1481 1478
1538 1540 1542 1542 1542 1541 1541 1540 1538 1536 1534 1532 1530 1528 1526 1526 1526 1525 1524 1522 1522 1520 1518 1515 1513 1511 1510 1508 1505 1503 1501 1498 1495 1491 1488 1485 1483 1480
1534 1535 1537 1537 1537 1538 1537 1536 1534 1533 1532 1530 1528 1526 1525 1524 1524 1524 1523 1522 1520 1519 1517 1515 1513 1511 1510 1508 1506 1503 1501 1498 1495 1492 1489 1486 1483 1481
1529 1531 1532 1532 1533 1533 1533 1532 1531 1529 1528 1527 1526 1523 1522 1522 1522 1522 1521 1520 1519 1517 1516 1514 1512 1510 1509 1507 1505 1503 1500 1498 1495 1492 1489 1487 1484 1481
1522 1525 1526 1527 1528 1528 1528 1528 1527 1526 1525 1524 1522 1521 1520 1519 1518 1519 1519 1518 1517 1516 1514 1513 1511 1509 1508 1506 1504 1502 1500 1497 1495 1491 1489 1487 1485 1483